Regional Weather Roundup
Issued by NWS Jackson, KY

Home | Current Version | Previous Version | Graphics & Text | Print | Product List | Glossary On
Versions: 1 2 3 4 5 6 7 8 9 10 11 12 13 14 15 16 17 18 19 20 21 22 23 24 25 26 27 28 29 30 31 32 33 34 35 36 37 38 39 40 41 42 43 44 45 46 47 48 49 50
000
ASUS43 KJKL 031610
RWRJKL

EAST KENTUCKY HOURLY WEATHER ROUNDUP
NATIONAL WEATHER SERVICE JACKSON KY
1200 PM EDT WED JUN 03 2015

NOTE: "FAIR" INDICATES FEW OR NO CLOUDS BELOW 12,000 FEET WITH
NO SIGNIFICANT WEATHER AND/OR OBSTRUCTIONS TO VISIBILITY.

* THESE REPORTS ARE NOT UNDER NWS QUALITY CONTROL AND MAY NOT
  REPORT WEATHER SUCH AS PRECIPITATION AND FOG.

KYZ079-080-083-085-087-088-110-112-115-119-120-031700
...EASTERN KENTUCKY...

CITY           SKY/WX    TMP DP  RH WIND       PRES   REMARKS
JACKSON        CLOUDY    62  57  83 CALM      30.08S
LONDON         CLOUDY    65  55  70 NE5       30.07S
SOMERSET*      CLOUDY    64  57  77 NE3       30.08S
MONTICELLO*    CLOUDY    65  60  83 CALM      30.09S
MIDDLESBORO*   CLOUDY    70  59  68 CALM      30.06S
HARLAN APT*    PTSUNNY   72  55  56 CALM      30.06S
HAZARD APT*    CLOUDY    64  61  88 CALM      30.08S
BLACK MTN*       N/A     64  57  77 SW1         N/A
PIKEVILLE APT* CLOUDY    61  59  94 CALM      30.09R
BIG SANDY*     CLOUDY    65  60  84 CALM      30.08S
MOREHEAD APT*  CLOUDY    64  57  77 VRB5      30.10S
$$

KYZ035-036-041-042-044-050-067-078-099-031700
...CENTRAL KENTUCKY...

CITY           SKY/WX    TMP DP  RH WIND       PRES   REMARKS
MT STERLING*   CLOUDY    63  55  77 E5        30.09S
FLEMING/MASON* CLOUDY    64  57  77 NE3       30.09S
DANVILLE*      CLOUDY    61  55  82 E3        30.08S
RICHMOND*      CLOUDY    63  55  77 E3        30.07S
LEXINGTON      CLOUDY    63  56  78 E9        30.08R
FRANKFORT      CLOUDY    63  54  72 E7        30.07R
$$

KYZ091>093-OHZ055-061-077-WVZ005-015-034-035-042-031700
...SOUTHERN OHIO/WEST VIRGINIA...

CITY           SKY/WX    TMP DP  RH WIND       PRES   REMARKS
COVINGTON      PTSUNNY   66  55  67 NE3       30.08S
COLUMBUS       CLOUDY    67  57  70 NE5       30.08F
DAYTON         CLOUDY    66  58  75 E5        30.10S
WILMINGTON     CLOUDY    65  56  72 MISG      30.09R
HUNTINGTON     CLOUDY    64  59  83 N3        30.08S
CHARLESTON     PTSUNNY   70  60  70 CALM      30.08R
PINEVILLE*     CLOUDY    68  61  77 MISG      30.14S
BECKLEY        CLOUDY    63  55  75 E12       30.14R
BLUEFIELD      CLOUDY    62  56  80 VRB6      30.15R
$$

VAZ002-007-008-TNZ017-027-036-066-071-031700
...SOUTHWEST VIRGINIA/EAST TENNESSEE...

CITY           SKY/WX    TMP DP  RH WIND       PRES   REMARKS
WISE*          PTSUNNY   70  63  78 S5        30.11S
JONESVILLE*    PTSUNNY   72  59  64 CALM      30.07S
ABINGDON*      PTSUNNY   73  62  68 E7        30.08S
BRISTOL        MOSUNNY   75  60  59 CALM      30.05F
KNOXVILLE      PTSUNNY   73  60  63 CALM      30.02S
OAK RIDGE      PTSUNNY   74  60  61 CALM      30.05R
CROSSVILLE     MOSUNNY   72  60  66 NE6       30.06S
NASHVILLE      CLOUDY    70  59  68 VRB5      30.04S
$$

...KEY TO REMARKS...
VSB - VISIBILITY IN MILES
WCI - WIND CHILL INDEX
HX  - HEAT INDEX

$$


USA.gov is the U.S. government's official web portal to all federal, state and local government web resources and services.